Time,TemperatureF,DewpointF,PressureIn,WindDirection,WindDirectionDegrees,WindSpeedMPH,WindSpeedGustMPH,Humidity,HourlyPrecipIn,Conditions,Clouds,dailyrainin,SoftwareType,DateUTC
2013-03-25 00:05:00,33.3,-99.9,-100.00,WSW,240,13.0,-999.0,-999,0.00,,,-99.99,Home Grown,2013-03-25 00:05:00,
2013-03-25 00:10:00,33.3,-99.9,-100.00,WSW,240,14.0,-999.0,-999,0.00,,,-99.99,Home Grown,2013-03-25 00:10:00,
2013-03-25 00:15:00,33.3,-99.9,-100.00,WSW,240,9.0,-999.0,-999,0.00,,,-99.99,Home Grown,2013-03-25 00:15:00,
2013-03-25 00:20:00,33.4,-99.9,-100.00,WSW,240,12.0,-999.0,-999,0.00,,,-99.99,Home Grown,2013-03-25 00:20:00,
2013-03-25 00:25:00,33.3,-99.9,-100.00,WSW,240,12.0,-999.0,-999,0.00,,,-99.99,Home Grown,2013-03-25 00:25:00,
2013-03-25 00:30:00,33.3,-99.9,-100.00,WSW,240,12.0,-999.0,-999,0.00,,,-99.99,Home Grown,2013-03-25 00:30:00,
2013-03-25 00:35:00,33.3,-99.9,-100.00,WSW,240,10.0,-999.0,-999,0.00,,,-99.99,Home Grown,2013-03-25 00:35:00,
2013-03-25 00:40:00,33.4,-99.9,-100.00,WSW,240,11.0,-999.0,-999,0.00,,,-99.99,Home Grown,2013-03-25 00:40:00,
2013-03-25 00:45:00,33.4,-99.9,-100.00,WSW,240,10.0,-999.0,-999,0.00,,,-99.99,Home Grown,2013-03-25 00:45:00,
2013-03-25 00:50:00,33.4,-99.9,-100.00,WSW,240,12.0,-999.0,-999,0.00,,,-99.99,Home Grown,2013-03-25 00:50:00,
2013-03-25 00:55:00,33.4,-99.9,-100.00,WSW,240,12.0,-999.0,-999,0.00,,,-99.99,Home Grown,2013-03-25 00:55:00,
2013-03-25 01:00:00,33.4,-99.9,-100.00,WSW,240,13.0,-999.0,-999,0.00,,,-99.99,Home Grown,2013-03-25 01:00:00,
2013-03-25 01:05:00,33.4,-99.9,-100.00,WSW,240,14.0,-999.0,-999,0.00,,,-99.99,Home Grown,2013-03-25 01:05:00,
2013-03-25 01:10:00,33.4,-99.9,-100.00,WSW,240,13.0,-999.0,-999,0.00,,,-99.99,Home Grown,2013-03-25 01:10:00,
2013-03-25 01:15:00,33.4,-99.9,-100.00,WSW,240,13.0,-999.0,-999,0.00,,,-99.99,Home Grown,2013-03-25 01:15:00,
2013-03-25 01:20:00,33.4,-99.9,-100.00,WSW,240,11.0,-999.0,-999,0.00,,,-99.99,Home Grown,2013-03-25 01:20:00,
2013-03-25 01:25:00,33.4,-99.9,-100.00,WSW,240,11.0,-999.0,-999,0.00,,,-99.99,Home Grown,2013-03-25 01:25:00,
2013-03-25 01:30:00,33.4,-99.9,-100.00,WSW,240,12.0,-999.0,-999,0.00,,,-99.99,Home Grown,2013-03-25 01:30:00,
2013-03-25 01:35:00,33.4,-99.9,-100.00,WSW,240,12.0,-999.0,-999,0.00,,,-99.99,Home Grown,2013-03-25 01:35:00,
2013-03-25 01:40:00,33.6,-99.9,-100.00,WSW,240,12.0,-999.0,-999,0.00,,,-99.99,Home Grown,2013-03-25 01:40:00,
2013-03-25 01:45:00,33.6,-99.9,-100.00,WSW,240,14.0,-999.0,-999,0.00,,,-99.99,Home Grown,2013-03-25 01:45:00,
2013-03-25 01:50:00,33.6,-99.9,-100.00,WSW,240,11.0,-999.0,-999,0.00,,,-99.99,Home Grown,2013-03-25 01:50:00,
2013-03-25 01:55:00,33.6,-99.9,-100.00,WSW,240,11.0,-999.0,-999,0.00,,,-99.99,Home Grown,2013-03-25 01:55:00,
2013-03-25 02:00:00,33.6,-99.9,-100.00,WSW,240,11.0,-999.0,-999,0.00,,,-99.99,Home Grown,2013-03-25 02:00:00,
2013-03-25 02:05:00,33.6,-99.9,-100.00,WSW,240,12.0,-999.0,-999,0.00,,,-99.99,Home Grown,2013-03-25 02:05:00,
2013-03-25 02:10:00,33.6,-99.9,-100.00,WSW,240,11.0,-999.0,-999,0.00,,,-99.99,Home Grown,2013-03-25 02:10:00,
2013-03-25 02:15:00,33.6,-99.9,-100.00,WSW,240,11.0,-999.0,-999,0.00,,,-99.99,Home Grown,2013-03-25 02:15:00,
2013-03-25 02:20:00,33.6,-99.9,-100.00,WSW,240,11.0,-999.0,-999,0.00,,,-99.99,Home Grown,2013-03-25 02:20:00,
2013-03-25 02:25:00,33.6,-99.9,-100.00,WSW,240,12.0,-999.0,-999,0.00,,,-99.99,Home Grown,2013-03-25 02:25:00,
2013-03-25 02:30:00,33.6,-99.9,-100.00,WSW,240,13.0,-999.0,-999,0.00,,,-99.99,Home Grown,2013-03-25 02:30:00,
2013-03-25 02:35:00,33.6,-99.9,-100.00,WSW,240,10.0,-999.0,-999,0.00,,,-99.99,Home Grown,2013-03-25 02:35:00,
2013-03-25 02:40:00,33.6,-99.9,-100.00,WSW,240,10.0,-999.0,-999,0.00,,,-99.99,Home Grown,2013-03-25 02:40:00,
2013-03-25 02:45:00,33.6,-99.9,-100.00,WSW,240,11.0,-999.0,-999,0.00,,,-99.99,Home Grown,2013-03-25 02:45:00,
2013-03-25 02:50:00,33.6,-99.9,-100.00,WSW,240,11.0,-999.0,-999,0.00,,,-99.99,Home Grown,2013-03-25 02:50:00,
2013-03-25 02:55:00,33.6,-99.9,-100.00,WSW,240,10.0,-999.0,-999,0.00,,,-99.99,Home Grown,2013-03-25 02:55:00,
2013-03-25 03:00:00,33.6,-99.9,-100.00,WSW,240,10.0,-999.0,-999,0.00,,,-99.99,Home Grown,2013-03-25 03:00:00,
2013-03-25 03:05:00,33.6,-99.9,-100.00,WSW,240,11.0,-999.0,-999,0.00,,,-99.99,Home Grown,2013-03-25 03:05:00,
2013-03-25 03:10:00,33.6,-99.9,-100.00,WSW,240,9.0,-999.0,-999,0.00,,,-99.99,Home Grown,2013-03-25 03:10:00,
2013-03-25 03:15:00,33.6,-99.9,-100.00,WSW,240,10.0,-999.0,-999,0.00,,,-99.99,Home Grown,2013-03-25 03:15:00,
2013-03-25 03:20:00,33.6,-99.9,-100.00,WSW,240,11.0,-999.0,-999,0.00,,,-99.99,Home Grown,2013-03-25 03:20:00,
2013-03-25 03:25:00,33.6,-99.9,-100.00,WSW,240,9.0,-999.0,-999,0.00,,,-99.99,Home Grown,2013-03-25 03:25:00,
2013-03-25 03:30:00,33.6,-99.9,-100.00,WSW,240,9.0,-999.0,-999,0.00,,,-99.99,Home Grown,2013-03-25 03:30:00,
2013-03-25 03:35:00,33.6,-99.9,-100.00,WSW,240,9.0,-999.0,-999,0.00,,,-99.99,Home Grown,2013-03-25 03:35:00,
2013-03-25 03:40:00,33.6,-99.9,-100.00,WSW,240,10.0,-999.0,-999,0.00,,,-99.99,Home Grown,2013-03-25 03:40:00,
2013-03-25 03:45:00,33.8,-99.9,-100.00,WSW,240,11.0,-999.0,-999,0.00,,,-99.99,Home Grown,2013-03-25 03:45:00,
2013-03-25 03:50:00,33.8,-99.9,-100.00,WSW,240,10.0,-999.0,-999,0.00,,,-99.99,Home Grown,2013-03-25 03:50:00,
2013-03-25 03:55:00,33.8,-99.9,-100.00,WSW,240,10.0,-999.0,-999,0.00,,,-99.99,Home Grown,2013-03-25 03:55:00,
2013-03-25 04:00:00,33.8,-99.9,-100.00,WSW,240,8.0,-999.0,-999,0.00,,,-99.99,Home Grown,2013-03-25 04:00:00,
2013-03-25 04:05:00,34.0,-99.9,-100.00,WSW,240,10.0,-999.0,-999,0.00,,,-99.99,Home Grown,2013-03-25 04:05:00,
2013-03-25 04:10:00,34.0,-99.9,-100.00,WSW,240,10.0,-999.0,-999,0.00,,,-99.99,Home Grown,2013-03-25 04:10:00,
2013-03-25 04:15:00,34.0,-99.9,-100.00,WSW,240,11.0,-999.0,-999,0.00,,,-99.99,Home Grown,2013-03-25 04:15:00,
2013-03-25 04:20:00,34.0,-99.9,-100.00,WSW,240,13.0,-999.0,-999,0.00,,,-99.99,Home Grown,2013-03-25 04:20:00,
2013-03-25 04:25:00,34.2,-99.9,-100.00,WSW,240,12.0,-999.0,-999,0.00,,,-99.99,Home Grown,2013-03-25 04:25:00,
2013-03-25 04:30:00,34.2,-99.9,-100.00,WSW,240,10.0,-999.0,-999,0.00,,,-99.99,Home Grown,2013-03-25 04:30:00,
2013-03-25 04:35:00,34.2,-99.9,-100.00,WSW,240,10.0,-999.0,-999,0.00,,,-99.99,Home Grown,2013-03-25 04:35:00,
2013-03-25 04:40:00,34.2,-99.9,-100.00,WSW,240,12.0,-999.0,-999,0.00,,,-99.99,Home Grown,2013-03-25 04:40:00,
2013-03-25 04:45:00,34.2,-99.9,-100.00,WSW,240,13.0,-999.0,-999,0.00,,,-99.99,Home Grown,2013-03-25 04:45:00,
2013-03-25 04:50:00,34.2,-99.9,-100.00,WSW,240,11.0,-999.0,-999,0.00,,,-99.99,Home Grown,2013-03-25 04:50:00,
2013-03-25 04:55:00,34.2,-99.9,-100.00,WSW,240,10.0,-999.0,-999,0.00,,,-99.99,Home Grown,2013-03-25 04:55:00,
2013-03-25 05:00:00,34.2,-99.9,-100.00,WSW,240,11.0,-999.0,-999,0.00,,,-99.99,Home Grown,2013-03-25 05:00:00,
2013-03-25 05:05:00,34.2,-99.9,-100.00,WSW,240,10.0,-999.0,-999,0.00,,,-99.99,Home Grown,2013-03-25 05:05:00,
2013-03-25 05:10:00,34.2,-99.9,-100.00,WSW,240,11.0,-999.0,-999,0.00,,,-99.99,Home Grown,2013-03-25 05:10:00,
2013-03-25 05:15:00,34.3,-99.9,-100.00,WSW,240,11.0,-999.0,-999,0.00,,,-99.99,Home Grown,2013-03-25 05:15:00,
2013-03-25 05:20:00,34.2,-99.9,-100.00,WSW,240,10.0,-999.0,-999,0.00,,,-99.99,Home Grown,2013-03-25 05:20:00,
2013-03-25 05:25:00,34.2,-99.9,-100.00,WSW,240,11.0,-999.0,-999,0.00,,,-99.99,Home Grown,2013-03-25 05:25:00,
2013-03-25 05:30:00,34.2,-99.9,-100.00,WSW,240,11.0,-999.0,-999,0.00,,,-99.99,Home Grown,2013-03-25 05:30:00,
2013-03-25 05:35:00,34.3,-99.9,-100.00,WSW,240,13.0,-999.0,-999,0.00,,,-99.99,Home Grown,2013-03-25 05:35:00,
2013-03-25 05:40:00,34.3,-99.9,-100.00,WSW,240,12.0,-999.0,-999,0.00,,,-99.99,Home Grown,2013-03-25 05:40:00,
2013-03-25 05:45:00,34.3,-99.9,-100.00,WSW,240,13.0,-999.0,-999,0.00,,,-99.99,Home Grown,2013-03-25 05:45:00,
2013-03-25 05:50:00,34.2,-99.9,-100.00,WSW,240,12.0,-999.0,-999,0.00,,,-99.99,Home Grown,2013-03-25 05:50:00,
2013-03-25 05:55:00,34.2,-99.9,-100.00,WSW,240,12.0,-999.0,-999,0.00,,,-99.99,Home Grown,2013-03-25 05:55:00,
2013-03-25 06:00:00,34.2,-99.9,-100.00,WSW,240,12.0,-999.0,-999,0.00,,,-99.99,Home Grown,2013-03-25 06:00:00,
2013-03-25 06:05:00,34.2,-99.9,-100.00,WSW,240,12.0,-999.0,-999,0.00,,,-99.99,Home Grown,2013-03-25 06:05:00,
2013-03-25 06:10:00,34.2,-99.9,-100.00,WSW,240,12.0,-999.0,-999,0.00,,,-99.99,Home Grown,2013-03-25 06:10:00,
2013-03-25 06:15:00,34.2,-99.9,-100.00,WSW,240,10.0,-999.0,-999,0.00,,,-99.99,Home Grown,2013-03-25 06:15:00,
2013-03-25 06:20:00,34.2,-99.9,-100.00,WSW,240,12.0,-999.0,-999,0.00,,,-99.99,Home Grown,2013-03-25 06:20:00,
2013-03-25 06:25:00,34.2,-99.9,-100.00,WSW,240,12.0,-999.0,-999,0.00,,,-99.99,Home Grown,2013-03-25 06:25:00,
2013-03-25 06:30:00,34.3,-99.9,-100.00,WSW,240,13.0,-999.0,-999,0.00,,,-99.99,Home Grown,2013-03-25 06:30:00,
2013-03-25 06:35:00,34.2,-99.9,-100.00,WSW,240,12.0,-999.0,-999,0.00,,,-99.99,Home Grown,2013-03-25 06:35:00,
2013-03-25 06:40:00,34.2,-99.9,-100.00,WSW,240,10.0,-999.0,-999,0.00,,,-99.99,Home Grown,2013-03-25 06:40:00,
2013-03-25 06:45:00,34.2,-99.9,-100.00,WSW,240,13.0,-999.0,-999,0.00,,,-99.99,Home Grown,2013-03-25 06:45:00,
2013-03-25 06:50:00,34.2,-99.9,-100.00,WSW,240,11.0,-999.0,-999,0.00,,,-99.99,Home Grown,2013-03-25 06:50:00,
2013-03-25 06:55:00,34.3,-99.9,-100.00,WSW,240,12.0,-999.0,-999,0.00,,,-99.99,Home Grown,2013-03-25 06:55:00,
2013-03-25 07:00:00,34.2,-99.9,-100.00,WSW,240,14.0,-999.0,-999,0.00,,,-99.99,Home Grown,2013-03-25 07:00:00,
2013-03-25 07:05:00,34.2,-99.9,-100.00,WSW,240,11.0,-999.0,-999,0.00,,,-99.99,Home Grown,2013-03-25 07:05:00,
2013-03-25 07:10:00,34.2,-99.9,-100.00,WSW,240,13.0,-999.0,-999,0.00,,,-99.99,Home Grown,2013-03-25 07:10:00,
2013-03-25 07:20:00,34.3,-99.9,-100.00,WSW,240,12.0,-999.0,-999,0.00,,,-99.99,Home Grown,2013-03-25 07:20:00,
2013-03-25 07:25:00,34.3,-99.9,-100.00,WSW,240,12.0,-999.0,-999,0.00,,,-99.99,Home Grown,2013-03-25 07:25:00,
2013-03-25 07:30:00,34.3,-99.9,-100.00,WSW,240,11.0,-999.0,-999,0.00,,,-99.99,Home Grown,2013-03-25 07:30:00,
2013-03-25 07:35:00,34.3,-99.9,-100.00,WSW,240,13.0,-999.0,-999,0.00,,,-99.99,Home Grown,2013-03-25 07:35:00,
2013-03-25 07:40:00,34.3,-99.9,-100.00,WSW,240,13.0,-999.0,-999,0.00,,,-99.99,Home Grown,2013-03-25 07:40:00,
2013-03-25 07:45:00,34.5,-99.9,-100.00,WSW,240,13.0,-999.0,-999,0.00,,,-99.99,Home Grown,2013-03-25 07:45:00,
2013-03-25 07:50:00,34.5,-99.9,-100.00,WSW,240,12.0,-999.0,-999,0.00,,,-99.99,Home Grown,2013-03-25 07:50:00,
2013-03-25 07:55:00,34.5,-99.9,-100.00,WSW,240,12.0,-999.0,-999,0.00,,,-99.99,Home Grown,2013-03-25 07:55:00,
2013-03-25 08:05:00,34.5,-99.9,-100.00,WSW,240,14.0,-999.0,-999,0.00,,,-99.99,Home Grown,2013-03-25 08:05:00,
2013-03-25 08:15:00,34.7,-99.9,-100.00,WSW,240,12.0,-999.0,-999,0.00,,,-99.99,Home Grown,2013-03-25 08:15:00,
2013-03-25 08:20:00,34.7,-99.9,-100.00,WSW,240,13.0,-999.0,-999,0.00,,,-99.99,Home Grown,2013-03-25 08:20:00,
2013-03-25 08:25:00,34.5,-99.9,-100.00,WSW,240,14.0,-999.0,-999,0.00,,,-99.99,Home Grown,2013-03-25 08:25:00,
2013-03-25 08:30:00,34.7,-99.9,-100.00,WSW,240,11.0,-999.0,-999,0.00,,,-99.99,Home Grown,2013-03-25 08:30:00,
2013-03-25 08:35:00,34.9,-99.9,-100.00,WSW,240,12.0,-999.0,-999,0.00,,,-99.99,Home Grown,2013-03-25 08:35:00,
2013-03-25 08:40:00,34.7,-99.9,-100.00,WSW,240,13.0,-999.0,-999,0.00,,,-99.99,Home Grown,2013-03-25 08:40:00,
2013-03-25 08:45:00,34.7,-99.9,-100.00,WSW,240,13.0,-999.0,-999,0.00,,,-99.99,Home Grown,2013-03-25 08:45:00,
2013-03-25 08:50:00,35.1,-99.9,-100.00,WSW,240,13.0,-999.0,-999,0.00,,,-99.99,Home Grown,2013-03-25 08:50:00,
2013-03-25 08:55:00,35.1,-99.9,-100.00,WSW,240,12.0,-999.0,-999,0.00,,,-99.99,Home Grown,2013-03-25 08:55:00,
2013-03-25 09:00:00,34.9,-99.9,-100.00,WSW,240,12.0,-999.0,-999,0.00,,,-99.99,Home Grown,2013-03-25 09:00:00,
2013-03-25 09:05:00,34.5,-99.9,-100.00,WSW,240,14.0,-999.0,-999,0.00,,,-99.99,Home Grown,2013-03-25 09:05:00,
2013-03-25 09:10:00,34.5,-99.9,-100.00,WSW,240,13.0,-999.0,-999,0.00,,,-99.99,Home Grown,2013-03-25 09:10:00,
2013-03-25 09:15:00,34.5,-99.9,-100.00,WSW,240,14.0,-999.0,-999,0.00,,,-99.99,Home Grown,2013-03-25 09:15:00,
2013-03-25 09:25:00,34.9,-99.9,-100.00,WSW,240,13.0,-999.0,-999,0.00,,,-99.99,Home Grown,2013-03-25 09:25:00,
2013-03-25 09:30:00,34.9,-99.9,-100.00,WSW,240,12.0,-999.0,-999,0.00,,,-99.99,Home Grown,2013-03-25 09:30:00,
2013-03-25 09:35:00,34.9,-99.9,-100.00,WSW,240,14.0,-999.0,-999,0.00,,,-99.99,Home Grown,2013-03-25 09:35:00,
2013-03-25 09:45:00,34.9,-99.9,-100.00,WSW,240,12.0,-999.0,-999,0.00,,,-99.99,Home Grown,2013-03-25 09:45:00,
2013-03-25 09:50:00,34.9,-99.9,-100.00,WSW,240,11.0,-999.0,-999,0.00,,,-99.99,Home Grown,2013-03-25 09:50:00,
2013-03-25 09:55:00,34.9,-99.9,-100.00,WSW,240,13.0,-999.0,-999,0.00,,,-99.99,Home Grown,2013-03-25 09:55:00,
2013-03-25 10:00:00,34.9,-99.9,-100.00,WSW,240,13.0,-999.0,-999,0.00,,,-99.99,Home Grown,2013-03-25 10:00:00,
2013-03-25 10:05:00,35.1,-99.9,-100.00,WSW,240,14.0,-999.0,-999,0.00,,,-99.99,Home Grown,2013-03-25 10:05:00,
2013-03-25 10:10:00,35.1,-99.9,-100.00,WSW,240,11.0,-999.0,-999,0.00,,,-99.99,Home Grown,2013-03-25 10:10:00,
2013-03-25 10:15:00,35.1,-99.9,-100.00,WSW,240,11.0,-999.0,-999,0.00,,,-99.99,Home Grown,2013-03-25 10:15:00,
2013-03-25 10:20:00,35.2,-99.9,-100.00,WSW,240,15.0,-999.0,-999,0.00,,,-99.99,Home Grown,2013-03-25 10:20:00,
2013-03-25 10:25:00,35.4,-99.9,-100.00,WSW,240,14.0,-999.0,-999,0.00,,,-99.99,Home Grown,2013-03-25 10:25:00,
2013-03-25 10:30:00,35.4,-99.9,-100.00,WSW,240,15.0,-999.0,-999,0.00,,,-99.99,Home Grown,2013-03-25 10:30:00,
2013-03-25 10:40:00,35.4,-99.9,-100.00,WSW,240,15.0,-999.0,-999,0.00,,,-99.99,Home Grown,2013-03-25 10:40:00,
2013-03-25 10:45:00,35.2,-99.9,-100.00,WSW,240,15.0,-999.0,-999,0.00,,,-99.99,Home Grown,2013-03-25 10:45:00,
2013-03-25 10:55:00,35.4,-99.9,-100.00,WSW,240,14.0,-999.0,-999,0.00,,,-99.99,Home Grown,2013-03-25 10:55:00,
2013-03-25 11:05:00,35.6,-99.9,-100.00,WSW,240,13.0,-999.0,-999,0.00,,,-99.99,Home Grown,2013-03-25 11:05:00,
2013-03-25 11:10:00,36.0,-99.9,-100.00,WSW,240,14.0,-999.0,-999,0.00,,,-99.99,Home Grown,2013-03-25 11:10:00,
2013-03-25 11:15:00,36.0,-99.9,-100.00,WSW,240,14.0,-999.0,-999,0.00,,,-99.99,Home Grown,2013-03-25 11:15:00,
2013-03-25 11:20:00,36.1,-99.9,-100.00,WSW,240,13.0,-999.0,-999,0.00,,,-99.99,Home Grown,2013-03-25 11:20:00,
2013-03-25 11:25:00,36.7,-99.9,-100.00,WSW,240,12.0,-999.0,-999,0.00,,,-99.99,Home Grown,2013-03-25 11:25:00,
2013-03-25 11:35:00,36.7,-99.9,-100.00,WSW,240,12.0,-999.0,-999,0.00,,,-99.99,Home Grown,2013-03-25 11:35:00,
2013-03-25 11:40:00,36.3,-99.9,-100.00,WSW,240,12.0,-999.0,-999,0.00,,,-99.99,Home Grown,2013-03-25 11:40:00,
2013-03-25 11:45:00,36.7,-99.9,-100.00,WSW,240,10.0,-999.0,-999,0.00,,,-99.99,Home Grown,2013-03-25 11:45:00,
2013-03-25 11:50:00,36.7,-99.9,-100.00,WSW,240,14.0,-999.0,-999,0.00,,,-99.99,Home Grown,2013-03-25 11:50:00,
2013-03-25 11:55:00,36.7,-99.9,-100.00,WSW,240,12.0,-999.0,-999,0.00,,,-99.99,Home Grown,2013-03-25 11:55:00,
2013-03-25 12:00:00,36.7,-99.9,-100.00,WSW,240,16.0,-999.0,-999,0.00,,,-99.99,Home Grown,2013-03-25 12:00:00,
2013-03-25 12:05:00,36.7,-99.9,-100.00,WSW,240,15.0,-999.0,-999,0.00,,,-99.99,Home Grown,2013-03-25 12:05:00,
2013-03-25 12:10:00,36.9,-99.9,-100.00,WSW,240,14.0,-999.0,-999,0.00,,,-99.99,Home Grown,2013-03-25 12:10:00,
2013-03-25 12:15:00,36.7,-99.9,-100.00,WSW,240,15.0,-999.0,-999,0.00,,,-99.99,Home Grown,2013-03-25 12:15:00,
2013-03-25 12:20:00,36.7,-99.9,-100.00,WSW,240,13.0,-999.0,-999,0.00,,,-99.99,Home Grown,2013-03-25 12:20:00,
2013-03-25 12:25:00,36.5,-99.9,-100.00,WSW,240,14.0,-999.0,-999,0.00,,,-99.99,Home Grown,2013-03-25 12:25:00,
2013-03-25 12:30:00,36.3,-99.9,-100.00,WSW,240,16.0,-999.0,-999,0.00,,,-99.99,Home Grown,2013-03-25 12:30:00,
2013-03-25 12:35:00,36.5,-99.9,-100.00,WSW,240,14.0,-999.0,-999,0.00,,,-99.99,Home Grown,2013-03-25 12:35:00,
2013-03-25 12:40:00,36.3,-99.9,-100.00,WSW,240,14.0,-999.0,-999,0.00,,,-99.99,Home Grown,2013-03-25 12:40:00,
2013-03-25 12:45:00,36.5,-99.9,-100.00,WSW,240,14.0,-999.0,-999,0.00,,,-99.99,Home Grown,2013-03-25 12:45:00,
2013-03-25 12:55:00,36.9,-99.9,-100.00,WSW,240,15.0,-999.0,-999,0.00,,,-99.99,Home Grown,2013-03-25 12:55:00,
2013-03-25 13:00:00,37.0,-99.9,-100.00,WSW,240,13.0,-999.0,-999,0.00,,,-99.99,Home Grown,2013-03-25 13:00:00,
2013-03-25 13:05:00,37.6,-99.9,-100.00,WSW,240,13.0,-999.0,-999,0.00,,,-99.99,Home Grown,2013-03-25 13:05:00,
2013-03-25 13:10:00,37.2,-99.9,-100.00,WSW,240,16.0,-999.0,-999,0.00,,,-99.99,Home Grown,2013-03-25 13:10:00,
2013-03-25 13:15:00,37.2,-99.9,-100.00,WSW,240,12.0,-999.0,-999,0.00,,,-99.99,Home Grown,2013-03-25 13:15:00,
2013-03-25 13:25:00,37.0,-99.9,-100.00,WSW,240,14.0,-999.0,-999,0.00,,,-99.99,Home Grown,2013-03-25 13:25:00,
2013-03-25 13:30:00,37.0,-99.9,-100.00,WSW,240,13.0,-999.0,-999,0.00,,,-99.99,Home Grown,2013-03-25 13:30:00,
2013-03-25 13:35:00,37.2,-99.9,-100.00,WSW,240,15.0,-999.0,-999,0.00,,,-99.99,Home Grown,2013-03-25 13:35:00,
2013-03-25 13:40:00,37.2,-99.9,-100.00,WSW,240,16.0,-999.0,-999,0.00,,,-99.99,Home Grown,2013-03-25 13:40:00,
2013-03-25 13:45:00,37.6,-99.9,-100.00,WSW,240,13.0,-999.0,-999,0.00,,,-99.99,Home Grown,2013-03-25 13:45:00,
2013-03-25 13:50:00,38.1,-99.9,-100.00,WSW,240,13.0,-999.0,-999,0.00,,,-99.99,Home Grown,2013-03-25 13:50:00,
2013-03-25 13:55:00,38.3,-99.9,-100.00,WSW,240,13.0,-999.0,-999,0.00,,,-99.99,Home Grown,2013-03-25 13:55:00,
2013-03-25 14:05:00,37.4,-99.9,-100.00,WSW,240,15.0,-999.0,-999,0.00,,,-99.99,Home Grown,2013-03-25 14:05:00,
2013-03-25 14:10:00,37.2,-99.9,-100.00,WSW,240,14.0,-999.0,-999,0.00,,,-99.99,Home Grown,2013-03-25 14:10:00,
2013-03-25 14:20:00,37.2,-99.9,-100.00,WSW,240,14.0,-999.0,-999,0.00,,,-99.99,Home Grown,2013-03-25 14:20:00,
2013-03-25 14:25:00,37.2,-99.9,-100.00,WSW,240,15.0,-999.0,-999,0.00,,,-99.99,Home Grown,2013-03-25 14:25:00,
2013-03-25 14:30:00,37.2,-99.9,-100.00,WSW,240,15.0,-999.0,-999,0.00,,,-99.99,Home Grown,2013-03-25 14:30:00,
2013-03-25 14:40:00,37.2,-99.9,-100.00,WSW,240,13.0,-999.0,-999,0.00,,,-99.99,Home Grown,2013-03-25 14:40:00,
2013-03-25 14:45:00,37.2,-99.9,-100.00,WSW,240,14.0,-999.0,-999,0.00,,,-99.99,Home Grown,2013-03-25 14:45:00,
2013-03-25 14:50:00,37.0,-99.9,-100.00,WSW,240,13.0,-999.0,-999,0.00,,,-99.99,Home Grown,2013-03-25 14:50:00,
2013-03-25 14:55:00,37.2,-99.9,-100.00,WSW,240,12.0,-999.0,-999,0.00,,,-99.99,Home Grown,2013-03-25 14:55:00,
2013-03-25 15:00:00,37.0,-99.9,-100.00,WSW,240,12.0,-999.0,-999,0.00,,,-99.99,Home Grown,2013-03-25 15:00:00,
2013-03-25 15:05:00,37.0,-99.9,-100.00,WSW,240,14.0,-999.0,-999,0.00,,,-99.99,Home Grown,2013-03-25 15:05:00,
2013-03-25 15:10:00,37.2,-99.9,-100.00,WSW,240,14.0,-999.0,-999,0.00,,,-99.99,Home Grown,2013-03-25 15:10:00,
2013-03-25 15:20:00,37.6,-99.9,-100.00,WSW,240,12.0,-999.0,-999,0.00,,,-99.99,Home Grown,2013-03-25 15:20:00,
2013-03-25 15:25:00,37.2,-99.9,-100.00,WSW,240,13.0,-999.0,-999,0.00,,,-99.99,Home Grown,2013-03-25 15:25:00,
2013-03-25 15:35:00,37.0,-99.9,-100.00,WSW,240,13.0,-999.0,-999,0.00,,,-99.99,Home Grown,2013-03-25 15:35:00,
2013-03-25 15:40:00,37.0,-99.9,-100.00,WSW,240,13.0,-999.0,-999,0.00,,,-99.99,Home Grown,2013-03-25 15:40:00,
2013-03-25 15:45:00,37.0,-99.9,-100.00,WSW,240,14.0,-999.0,-999,0.00,,,-99.99,Home Grown,2013-03-25 15:45:00,
2013-03-25 15:55:00,37.0,-99.9,-100.00,WSW,240,13.0,-999.0,-999,0.00,,,-99.99,Home Grown,2013-03-25 15:55:00,
2013-03-25 16:00:00,37.0,-99.9,-100.00,WSW,240,12.0,-999.0,-999,0.00,,,-99.99,Home Grown,2013-03-25 16:00:00,
2013-03-25 16:05:00,36.9,-99.9,-100.00,WSW,240,14.0,-999.0,-999,0.00,,,-99.99,Home Grown,2013-03-25 16:05:00,
2013-03-25 16:10:00,36.9,-99.9,-100.00,WSW,240,15.0,-999.0,-999,0.00,,,-99.99,Home Grown,2013-03-25 16:10:00,
2013-03-25 16:15:00,37.0,-99.9,-100.00,WSW,240,10.0,-999.0,-999,0.00,,,-99.99,Home Grown,2013-03-25 16:15:00,
2013-03-25 16:20:00,37.0,-99.9,-100.00,WSW,240,17.0,-999.0,-999,0.00,,,-99.99,Home Grown,2013-03-25 16:20:00,
2013-03-25 16:25:00,37.0,-99.9,-100.00,WSW,240,16.0,-999.0,-999,0.00,,,-99.99,Home Grown,2013-03-25 16:25:00,
2013-03-25 16:35:00,36.9,-99.9,-100.00,WSW,240,12.0,-999.0,-999,0.00,,,-99.99,Home Grown,2013-03-25 16:35:00,
2013-03-25 16:45:00,36.7,-99.9,-100.00,WSW,240,13.0,-999.0,-999,0.00,,,-99.99,Home Grown,2013-03-25 16:45:00,
2013-03-25 16:50:00,36.5,-99.9,-100.00,WSW,240,13.0,-999.0,-999,0.00,,,-99.99,Home Grown,2013-03-25 16:50:00,
2013-03-25 16:55:00,36.5,-99.9,-100.00,WSW,240,12.0,-999.0,-999,0.00,,,-99.99,Home Grown,2013-03-25 16:55:00,
2013-03-25 17:00:00,36.3,-99.9,-100.00,WSW,240,11.0,-999.0,-999,0.00,,,-99.99,Home Grown,2013-03-25 17:00:00,
2013-03-25 17:05:00,36.5,-99.9,-100.00,WSW,240,12.0,-999.0,-999,0.00,,,-99.99,Home Grown,2013-03-25 17:05:00,
2013-03-25 17:10:00,36.5,-99.9,-100.00,WSW,240,11.0,-999.0,-999,0.00,,,-99.99,Home Grown,2013-03-25 17:10:00,
2013-03-25 17:15:00,36.5,-99.9,-100.00,WSW,240,11.0,-999.0,-999,0.00,,,-99.99,Home Grown,2013-03-25 17:15:00,
2013-03-25 17:20:00,36.3,-99.9,-100.00,WSW,240,11.0,-999.0,-999,0.00,,,-99.99,Home Grown,2013-03-25 17:20:00,
2013-03-25 17:30:00,36.3,-99.9,-100.00,WSW,240,10.0,-999.0,-999,0.00,,,-99.99,Home Grown,2013-03-25 17:30:00,
2013-03-25 17:35:00,36.3,-99.9,-100.00,WSW,240,12.0,-999.0,-999,0.00,,,-99.99,Home Grown,2013-03-25 17:35:00,
2013-03-25 17:45:00,36.3,-99.9,-100.00,WSW,240,11.0,-999.0,-999,0.00,,,-99.99,Home Grown,2013-03-25 17:45:00,
2013-03-25 17:50:00,36.1,-99.9,-100.00,WSW,240,13.0,-999.0,-999,0.00,,,-99.99,Home Grown,2013-03-25 17:50:00,
2013-03-25 18:00:00,36.0,-99.9,-100.00,WSW,240,11.0,-999.0,-999,0.00,,,-99.99,Home Grown,2013-03-25 18:00:00,
2013-03-25 18:05:00,36.0,-99.9,-100.00,WSW,240,12.0,-999.0,-999,0.00,,,-99.99,Home Grown,2013-03-25 18:05:00,
2013-03-25 18:10:00,36.0,-99.9,-100.00,WSW,240,10.0,-999.0,-999,0.00,,,-99.99,Home Grown,2013-03-25 18:10:00,
2013-03-25 18:15:00,35.8,-99.9,-100.00,WSW,240,11.0,-999.0,-999,0.00,,,-99.99,Home Grown,2013-03-25 18:15:00,
2013-03-25 18:20:00,35.8,-99.9,-100.00,WSW,240,11.0,-999.0,-999,0.00,,,-99.99,Home Grown,2013-03-25 18:20:00,
2013-03-25 18:25:00,35.8,-99.9,-100.00,WSW,240,13.0,-999.0,-999,0.00,,,-99.99,Home Grown,2013-03-25 18:25:00,
2013-03-25 18:30:00,35.8,-99.9,-100.00,WSW,240,10.0,-999.0,-999,0.00,,,-99.99,Home Grown,2013-03-25 18:30:00,
2013-03-25 18:35:00,35.8,-99.9,-100.00,WSW,240,10.0,-999.0,-999,0.00,,,-99.99,Home Grown,2013-03-25 18:35:00,
2013-03-25 18:40:00,35.8,-99.9,-100.00,WSW,240,9.0,-999.0,-999,0.00,,,-99.99,Home Grown,2013-03-25 18:40:00,
2013-03-25 18:45:00,35.8,-99.9,-100.00,WSW,240,12.0,-999.0,-999,0.00,,,-99.99,Home Grown,2013-03-25 18:45:00,
2013-03-25 18:50:00,35.6,-99.9,-100.00,WSW,240,11.0,-999.0,-999,0.00,,,-99.99,Home Grown,2013-03-25 18:50:00,
2013-03-25 18:55:00,35.6,-99.9,-100.00,WSW,240,9.0,-999.0,-999,0.00,,,-99.99,Home Grown,2013-03-25 18:55:00,
2013-03-25 19:00:00,35.6,-99.9,-100.00,WSW,240,11.0,-999.0,-999,0.00,,,-99.99,Home Grown,2013-03-25 19:00:00,
2013-03-25 19:05:00,35.6,-99.9,-100.00,WSW,240,11.0,-999.0,-999,0.00,,,-99.99,Home Grown,2013-03-25 19:05:00,
2013-03-25 19:10:00,35.6,-99.9,-100.00,WSW,240,10.0,-999.0,-999,0.00,,,-99.99,Home Grown,2013-03-25 19:10:00,
2013-03-25 19:15:00,35.6,-99.9,-100.00,WSW,240,11.0,-999.0,-999,0.00,,,-99.99,Home Grown,2013-03-25 19:15:00,
2013-03-25 19:20:00,35.8,-99.9,-100.00,WSW,240,11.0,-999.0,-999,0.00,,,-99.99,Home Grown,2013-03-25 19:20:00,
2013-03-25 19:25:00,35.8,-99.9,-100.00,WSW,240,11.0,-999.0,-999,0.00,,,-99.99,Home Grown,2013-03-25 19:25:00,
2013-03-25 19:30:00,35.6,-99.9,-100.00,WSW,240,10.0,-999.0,-999,0.00,,,-99.99,Home Grown,2013-03-25 19:30:00,
2013-03-25 19:35:00,35.4,-99.9,-100.00,WSW,240,10.0,-999.0,-999,0.00,,,-99.99,Home Grown,2013-03-25 19:35:00,
2013-03-25 19:40:00,35.4,-99.9,-100.00,WSW,240,10.0,-999.0,-999,0.00,,,-99.99,Home Grown,2013-03-25 19:40:00,
2013-03-25 19:45:00,35.2,-99.9,-100.00,WSW,240,12.0,-999.0,-999,0.00,,,-99.99,Home Grown,2013-03-25 19:45:00,
2013-03-25 19:50:00,35.4,-99.9,-100.00,WSW,240,10.0,-999.0,-999,0.00,,,-99.99,Home Grown,2013-03-25 19:50:00,
2013-03-25 20:00:00,35.4,-99.9,-100.00,WSW,240,10.0,-999.0,-999,0.00,,,-99.99,Home Grown,2013-03-25 20:00:00,
2013-03-25 20:10:00,35.4,-99.9,-100.00,WSW,240,9.0,-999.0,-999,0.00,,,-99.99,Home Grown,2013-03-25 20:10:00,
2013-03-25 20:15:00,35.4,-99.9,-100.00,WSW,240,9.0,-999.0,-999,0.00,,,-99.99,Home Grown,2013-03-25 20:15:00,
2013-03-25 20:20:00,35.2,-99.9,-100.00,WSW,240,11.0,-999.0,-999,0.00,,,-99.99,Home Grown,2013-03-25 20:20:00,
2013-03-25 20:25:00,34.9,-99.9,-100.00,WSW,240,11.0,-999.0,-999,0.00,,,-99.99,Home Grown,2013-03-25 20:25:00,
2013-03-25 20:30:00,34.9,-99.9,-100.00,WSW,240,11.0,-999.0,-999,0.00,,,-99.99,Home Grown,2013-03-25 20:30:00,
2013-03-25 20:35:00,34.9,-99.9,-100.00,WSW,240,10.0,-999.0,-999,0.00,,,-99.99,Home Grown,2013-03-25 20:35:00,
2013-03-25 20:40:00,35.2,-99.9,-100.00,WSW,240,10.0,-999.0,-999,0.00,,,-99.99,Home Grown,2013-03-25 20:40:00,
2013-03-25 20:45:00,35.2,-99.9,-100.00,WSW,240,11.0,-999.0,-999,0.00,,,-99.99,Home Grown,2013-03-25 20:45:00,
2013-03-25 20:50:00,35.1,-99.9,-100.00,WSW,240,10.0,-999.0,-999,0.00,,,-99.99,Home Grown,2013-03-25 20:50:00,
2013-03-25 20:55:00,34.9,-99.9,-100.00,WSW,240,11.0,-999.0,-999,0.00,,,-99.99,Home Grown,2013-03-25 20:55:00,
2013-03-25 21:00:00,34.9,-99.9,-100.00,WSW,240,10.0,-999.0,-999,0.00,,,-99.99,Home Grown,2013-03-25 21:00:00,
2013-03-25 21:05:00,34.7,-99.9,-100.00,WSW,240,11.0,-999.0,-999,0.00,,,-99.99,Home Grown,2013-03-25 21:05:00,
2013-03-25 21:15:00,34.7,-99.9,-100.00,WSW,240,10.0,-999.0,-999,0.00,,,-99.99,Home Grown,2013-03-25 21:15:00,
2013-03-25 21:20:00,34.7,-99.9,-100.00,WSW,240,10.0,-999.0,-999,0.00,,,-99.99,Home Grown,2013-03-25 21:20:00,
2013-03-25 21:25:00,34.9,-99.9,-100.00,WSW,240,12.0,-999.0,-999,0.00,,,-99.99,Home Grown,2013-03-25 21:25:00,
2013-03-25 21:35:00,34.9,-99.9,-100.00,WSW,240,12.0,-999.0,-999,0.00,,,-99.99,Home Grown,2013-03-25 21:35:00,
2013-03-25 21:40:00,34.9,-99.9,-100.00,WSW,240,12.0,-999.0,-999,0.00,,,-99.99,Home Grown,2013-03-25 21:40:00,
2013-03-25 21:45:00,34.7,-99.9,-100.00,WSW,240,11.0,-999.0,-999,0.00,,,-99.99,Home Grown,2013-03-25 21:45:00,
2013-03-25 21:50:00,34.7,-99.9,-100.00,WSW,240,11.0,-999.0,-999,0.00,,,-99.99,Home Grown,2013-03-25 21:50:00,
2013-03-25 21:55:00,34.7,-99.9,-100.00,WSW,240,11.0,-999.0,-999,0.00,,,-99.99,Home Grown,2013-03-25 21:55:00,
2013-03-25 22:00:00,34.7,-99.9,-100.00,WSW,240,11.0,-999.0,-999,0.00,,,-99.99,Home Grown,2013-03-25 22:00:00,
2013-03-25 22:10:00,34.5,-99.9,-100.00,WSW,240,8.0,-999.0,-999,0.00,,,-99.99,Home Grown,2013-03-25 22:10:00,
2013-03-25 22:15:00,34.5,-99.9,-100.00,WSW,240,11.0,-999.0,-999,0.00,,,-99.99,Home Grown,2013-03-25 22:15:00,
2013-03-25 22:20:00,34.5,-99.9,-100.00,WSW,240,11.0,-999.0,-999,0.00,,,-99.99,Home Grown,2013-03-25 22:20:00,
2013-03-25 22:25:00,34.5,-99.9,-100.00,WSW,240,11.0,-999.0,-999,0.00,,,-99.99,Home Grown,2013-03-25 22:25:00,
2013-03-25 22:30:00,34.5,-99.9,-100.00,WSW,240,12.0,-999.0,-999,0.00,,,-99.99,Home Grown,2013-03-25 22:30:00,
2013-03-25 22:35:00,34.2,-99.9,-100.00,WSW,240,12.0,-999.0,-999,0.00,,,-99.99,Home Grown,2013-03-25 22:35:00,
2013-03-25 22:40:00,34.2,-99.9,-100.00,WSW,240,11.0,-999.0,-999,0.00,,,-99.99,Home Grown,2013-03-25 22:40:00,
2013-03-25 22:45:00,34.2,-99.9,-100.00,WSW,240,11.0,-999.0,-999,0.00,,,-99.99,Home Grown,2013-03-25 22:45:00,
2013-03-25 22:50:00,34.2,-99.9,-100.00,WSW,240,10.0,-999.0,-999,0.00,,,-99.99,Home Grown,2013-03-25 22:50:00,
2013-03-25 22:55:00,34.2,-99.9,-100.00,WSW,240,11.0,-999.0,-999,0.00,,,-99.99,Home Grown,2013-03-25 22:55:00,
2013-03-25 23:00:00,34.3,-99.9,-100.00,WSW,240,11.0,-999.0,-999,0.00,,,-99.99,Home Grown,2013-03-25 23:00:00,
2013-03-25 23:05:00,34.3,-99.9,-100.00,WSW,240,11.0,-999.0,-999,0.00,,,-99.99,Home Grown,2013-03-25 23:05:00,
2013-03-25 23:10:00,34.2,-99.9,-100.00,WSW,240,11.0,-999.0,-999,0.00,,,-99.99,Home Grown,2013-03-25 23:10:00,
2013-03-25 23:15:00,34.2,-99.9,-100.00,WSW,240,10.0,-999.0,-999,0.00,,,-99.99,Home Grown,2013-03-25 23:15:00,
2013-03-25 23:20:00,34.2,-99.9,-100.00,WSW,240,9.0,-999.0,-999,0.00,,,-99.99,Home Grown,2013-03-25 23:20:00,
2013-03-25 23:25:00,34.2,-99.9,-100.00,WSW,240,8.0,-999.0,-999,0.00,,,-99.99,Home Grown,2013-03-25 23:25:00,
2013-03-25 23:30:00,34.2,-99.9,-100.00,WSW,240,8.0,-999.0,-999,0.00,,,-99.99,Home Grown,2013-03-25 23:30:00,
2013-03-25 23:35:00,34.2,-99.9,-100.00,WSW,240,9.0,-999.0,-999,0.00,,,-99.99,Home Grown,2013-03-25 23:35:00,
2013-03-25 23:40:00,34.2,-99.9,-100.00,WSW,240,9.0,-999.0,-999,0.00,,,-99.99,Home Grown,2013-03-25 23:40:00,
2013-03-25 23:45:00,34.2,-99.9,-100.00,WSW,240,9.0,-999.0,-999,0.00,,,-99.99,Home Grown,2013-03-25 23:45:00,
2013-03-25 23:50:00,34.2,-99.9,-100.00,WSW,240,9.0,-999.0,-999,0.00,,,-99.99,Home Grown,2013-03-25 23:50:00,
2013-03-25 23:55:00,34.0,-99.9,-100.00,WSW,240,13.0,-999.0,-999,0.00,,,-99.99,Home Grown,2013-03-25 23:55:00,